Location: Nairn
(57.5833°N, 3.8667°W)
Time: 22:29:11
(UTC+00:00)

SR - All Passes

Search period start: 05 December 2020 00:00
Search period end: 15 December 2020 00:00
Orbit: 579 x 877 km, 66.7° (Epoch: 04 December)

Date Brightness Start Highest point End Pass type
(mag) Time Alt. Az. Time Alt. Az. Time Alt. Az.
05 Dec - 01:41:42 10° NW 01:46:43 47° SW 01:52:05 10° SSE night (unlit)
05 Dec - 03:25:53 10° W 03:27:45 12° WSW 03:29:40 10° SW night (unlit)
05 Dec - 16:21:38 10° SSE 16:24:35 17° ESE 16:27:39 10° ENE visible
05 Dec - 18:01:18 10° SW 18:05:48 76° SE 18:10:44 10° NE visible
05 Dec - 19:43:53 10° W 19:48:17 39° NNW 19:53:03 10° NE visible
05 Dec - 21:27:12 10° WNW 21:31:29 29° N 21:36:05 10° ENE visible
05 Dec - 23:09:48 10° NW 23:14:38 44° NNE 23:19:52 10° E night (unlit)
06 Dec - 00:51:52 10° NW 00:57:04 73° SW 01:02:40 10° SE night (unlit)
06 Dec - 02:34:42 10° WNW 02:38:30 20° WSW 02:42:28 10° SSW night (unlit)
06 Dec - 17:11:53 10° SSW 17:16:11 46° SE 17:20:51 10° NE visible
06 Dec - 18:53:45 10° WSW 18:58:15 51° NNW 19:03:12 10° NE visible
06 Dec - 20:37:02 10° WNW 20:41:17 30° N 20:45:53 10° NE visible
06 Dec - 22:19:56 10° NW 22:24:34 35° NNE 22:29:33 10° E visible
07 Dec - 00:02:06 10° NW 00:07:18 78° NE 00:12:54 10° SE night (unlit)
07 Dec - 01:44:26 10° WNW 01:49:05 32° WSW 01:54:01 10° S night (unlit)
07 Dec - 16:22:54 10° S 16:26:43 28° ESE 16:30:49 10° ENE visible
07 Dec - 18:03:47 10° SW 18:08:21 74° NW 18:13:22 10° NE visible
07 Dec - 19:46:49 10° W 19:51:08 33° NNW 19:55:49 10° NE visible
07 Dec - 21:30:00 10° NW 21:34:26 31° N 21:39:12 10° ENE visible
07 Dec - 23:12:21 10° NW 23:17:24 56° NNE 23:22:53 10° ESE night (unlit)
08 Dec - 00:54:28 10° NW 00:59:33 49° SW 01:04:59 10° SSE night (unlit)
08 Dec - 02:38:23 10° W 02:40:37 13° WSW 02:42:54 10° SW night (unlit)
08 Dec - 15:34:35 10° SSE 15:37:25 17° ESE 15:40:23 10° ENE daylight
08 Dec - 17:14:05 10° SW 17:18:36 73° SE 17:23:33 10° NE visible
08 Dec - 18:56:36 10° W 19:01:02 40° NNW 19:05:52 10° NE visible
08 Dec - 20:39:56 10° WNW 20:44:14 30° N 20:48:53 10° ENE visible
08 Dec - 22:22:34 10° NW 22:27:25 43° NNE 22:32:39 10° E visible
09 Dec - 00:04:39 10° NW 00:09:52 75° SW 00:15:31 10° SE night (unlit)
09 Dec - 01:47:24 10° WNW 01:51:21 21° WSW 01:55:28 10° SSW night (unlit)
09 Dec - 16:24:42 10° SSW 16:28:59 44° ESE 16:33:39 10° NE visible
09 Dec - 18:06:29 10° WSW 18:11:02 53° NNW 18:16:01 10° NE visible
09 Dec - 19:49:46 10° WNW 19:54:03 30° N 19:58:41 10° NE visible
09 Dec - 21:32:42 10° NW 21:37:20 35° NNE 21:42:19 10° E visible
09 Dec - 23:14:53 10° NW 23:20:05 76° NE 23:25:43 10° SE night (unlit)
10 Dec - 00:57:11 10° WNW 01:01:55 33° WSW 01:06:56 10° S night (unlit)
10 Dec - 15:35:46 10° S 15:39:33 27° ESE 15:43:35 10° ENE daylight
10 Dec - 17:16:32 10° SW 17:21:08 77° NW 17:26:12 10° NE visible
10 Dec - 18:59:32 10° W 19:03:54 34° NNW 19:08:37 10° NE visible
10 Dec - 20:42:44 10° NW 20:47:11 31° N 20:51:58 10° ENE visible
10 Dec - 22:25:07 10° NW 22:30:11 55° NNE 22:35:40 10° ESE visible
11 Dec - 00:07:14 10° NW 00:12:22 52° SW 00:17:51 10° SSE night (unlit)
11 Dec - 01:50:57 10° WNW 01:53:29 13° WSW 01:56:05 10° SW night (unlit)
11 Dec - 14:47:32 10° SE 14:50:15 16° ESE 14:53:06 10° ENE daylight
11 Dec - 16:26:51 10° SSW 16:31:23 70° SE 16:36:22 10° NE visible
11 Dec - 18:09:20 10° W 18:13:48 41° NNW 18:18:41 10° NE visible
11 Dec - 19:52:39 10° WNW 19:57:00 30° N 20:01:40 10° ENE visible
11 Dec - 21:35:19 10° NW 21:40:11 42° NNE 21:45:26 10° E visible
11 Dec - 23:17:25 10° NW 23:22:41 78° SW 23:28:21 10° SE night (unlit)
12 Dec - 01:00:07 10° WNW 01:04:11 22° WSW 01:08:27 10° SSW night (unlit)
12 Dec - 15:37:31 10° SSW 15:41:47 42° ESE 15:46:27 10° NE daylight
12 Dec - 17:19:13 10° WSW 17:23:47 55° NNW 17:28:49 10° NE visible
12 Dec - 19:02:28 10° WNW 19:06:48 31° N 19:11:28 10° NE visible
12 Dec - 20:45:27 10° NW 20:50:06 35° NNE 20:55:05 10° E visible
12 Dec - 22:27:39 10° NW 22:32:53 74° NE 22:38:32 10° SE visible
13 Dec - 00:09:56 10° NW 00:14:45 35° WSW 00:19:51 10° S night (unlit)
13 Dec - 14:48:38 10° S 14:52:21 26° ESE 14:56:21 10° ENE daylight
13 Dec - 16:29:18 10° SW 16:33:55 80° NW 16:39:00 10° NE visible
13 Dec - 18:12:14 10° W 18:16:39 35° NNW 18:21:25 10° NE visible
13 Dec - 19:55:28 10° NW 19:59:56 31° N 20:04:44 10° ENE visible
13 Dec - 21:37:53 10° NW 21:42:58 53° NNE 21:48:27 10° ESE visible
13 Dec - 23:20:01 10° NW 23:25:11 54° SW 23:30:43 10° SSE night (unlit)
14 Dec - 01:03:32 10° WNW 01:06:19 14° WSW 01:09:12 10° SW night (unlit)
14 Dec - 14:00:29 10° SE 14:03:05 15° ESE 14:05:47 10° ENE daylight
14 Dec - 15:39:38 10° SSW 15:44:11 67° SE 15:49:09 10° NE daylight
14 Dec - 17:22:02 10° W 17:26:33 43° NNW 17:31:29 10° NE visible
14 Dec - 19:05:22 10° WNW 19:09:44 30° N 19:14:26 10° ENE visible
14 Dec - 20:48:04 10° NW 20:52:57 41° NNE 20:58:12 10° E visible
14 Dec - 22:30:11 10° NW 22:35:29 81° SW 22:41:11 10° SE visible
